Theta_e
351 351 349 349 348 348 348 346 345 346 347 347 346 347 349 349 348 349 349 349 349 349 349 349 350 350 351 353 353 353 353 352 353 351 350 350 350 350 349 351 352 352 351 352 353 352 351 351 350 350 349 349 351 352 353 353 350 348 347 346 347 350 351 351 351 351 350 348 348
351 350 349 347 347 348 348 347 346 346 347 347 347 347 348 348 348 349 349 349 350 350 349 349 350 350 350 353 354 354 353 352 353 352 351 351 351 350 351 351 351 352 353 353 353 352 352 350 349 347 347 347 348 349 350 351 350 349 348 348 349 351 351 350 351 351 352 350 350
351 351 351 350 349 348 347 347 347 347 347 347 347 348 348 348 348 347 348 349 350 350 350 350 351 352 352 353 354 353 353 352 353 353 352 353 351 351 350 350 349 349 350 350 351 352 351 352 349 347 346 346 347 348 349 351 350 350 350 350 352 352 351 350 351 352 352 351 350
351 351 350 350 349 348 348 347 347 347 347 346 346 347 347 348 348 349 349 350 351 350 350 351 353 354 353 353 354 353 351 351 352 353 353 352 353 352 352 350 349 348 349 349 349 349 349 351 350 349 347 345 348 348 349 349 350 350 351 351 352 352 350 349 350 351 352 352 351
350 349 350 349 349 348 348 347 347 346 346 347 347 346 346 347 348 349 349 350 350 349 350 351 353 354 353 352 352 350 350 350 349 351 353 353 353 352 352 353 352 352 353 354 352 351 350 351 350 350 349 349 350 351 351 351 350 350 350 351 351 351 351 351 351 351 352 351 351
350 350 350 350 349 348 347 347 347 347 347 347 347 346 346 345 347 347 348 349 350 350 350 350 350 351 351 350 350 349 349 349 349 350 351 352 353 352 352 352 352 352 352 352 353 352 351 351 350 349 349 348 348 348 348 348 349 348 347 347 348 350 350 350 350 350 350 350 351
349 350 349 350 349 349 348 348 348 348 347 347 346 346 345 345 346 347 348 348 350 351 350 350 350 350 349 348 348 349 349 348 347 347 348 348 350 351 351 351 350 350 350 351 353 352 351 350 349 348 347 346 346 346 346 347 347 346 346 346 347 348 349 348 348 348 348 348 349
350 350 350 349 349 349 349 349 348 347 346 346 345 345 345 346 347 347 348 349 350 351 351 351 351 349 349 347 349 349 349 349 347 346 346 347 347 347 348 348 348 348 349 349 350 350 351 351 350 349 347 346 345 345 345 346 347 346 346 347 348 348 349 350 350 350 349 349 349
349 350 350 350 350 348 348 349 349 348 347 346 346 345 344 345 346 347 348 349 350 351 351 351 350 348 348 346 349 349 350 349 348 346 346 346 346 346 345 345 345 345 346 346 347 347 348 348 349 349 348 348 347 346 346 346 346 345 346 346 347 347 349 350 349 349 349 349 348
350 350 349 349 349 349 348 349 349 348 346 346 347 346 344 343 345 348 349 349 351 352 352 351 348 347 348 347 348 348 348 348 348 347 345 345 344 344 343 343 342 342 343 344 344 344 344 344 345 346 347 348 348 348 347 347 346 345 345 345 346 346 346 345 346 346 347 348 348
350 350 350 349 349 349 349 348 347 347 346 346 347 347 346 345 347 348 349 350 351 351 350 350 348 347 347 348 347 347 346 346 345 345 344 344 343 343 342 342 341 341 341 341 341 341 342 342 341 342 343 346 347 347 348 348 348 347 345 345 344 344 345 345 346 346 347 347 347
351 350 350 350 349 349 349 348 347 346 346 346 346 346 347 347 348 348 348 350 349 349 349 349 349 348 348 347 346 346 344 344 344 344 343 343 342 342 342 341 341 340 340 340 339 340 340 340 339 340 340 340 341 342 344 346 346 346 345 345 345 344 344 345 347 347 347 347 346
351 350 350 350 350 349 349 348 347 346 346 346 345 345 345 346 347 348 348 348 348 349 349 350 348 347 347 347 346 346 346 346 345 344 343 342 341 341 340 340 340 339 339 339 338 338 338 339 340 340 339 339 338 339 340 341 342 342 342 342 343 343 343 344 346 347 348 347 346
351 351 351 350 350 349 349 348 347 347 346 345 345 345 345 346 347 347 348 348 347 348 349 350 348 347 346 346 345 345 346 346 343 342 341 340 340 339 339 339 339 338 338 338 337 337 337 336 337 337 337 337 336 336 337 338 338 338 337 338 338 339 339 341 343 345 346 346 344
351 351 351 351 350 349 348 347 346 345 345 344 345 344 345 346 346 346 346 347 347 347 348 348 347 346 345 345 345 345 344 343 341 340 339 338 339 338 338 338 337 337 337 336 336 336 335 335 335 334 334 334 335 335 335 336 336 335 335 335 336 336 337 338 340 341 342 343 343
351 351 351 351 350 349 348 346 346 345 345 345 344 345 345 346 346 346 346 346 346 346 347 347 347 347 345 344 343 343 343 342 341 339 339 337 338 337 337 336 336 335 335 335 334 333 333 333 333 332 332 332 333 333 334 335 335 335 334 335 335 335 335 336 338 339 340 340 340
350 350 350 351 350 348 348 346 346 345 345 344 344 345 345 346 346 345 345 345 345 345 346 347 346 345 344 342 343 343 343 342 341 340 339 337 337 336 336 335 335 335 335 334 333 332 332 332 332 332 331 331 331 332 332 333 333 333 334 334 334 334 334 334 335 336 336 337 337
349 350 350 350 349 348 348 346 346 346 345 344 345 345 345 345 345 346 346 345 346 345 345 345 345 345 344 343 343 343 342 342 341 340 339 339 338 337 336 335 335 336 335 335 334 333 333 332 332 332 332 332 331 331 331 331 331 331 331 331 331 332 332 332 332 333 333 333 333
348 349 349 349 349 348 348 346 346 345 345 345 345 345 345 345 346 346 346 346 346 345 345 345 345 344 344 344 343 342 341 341 340 340 339 339 338 337 337 336 336 336 336 336 335 335 334 334 333 333 332 332 332 331 331 331 330 330 330 329 329 329 329 330 330 330 331 331 330
348 348 349 349 349 349 348 346 346 346 346 346 346 345 345 345 345 345 345 345 345 346 345 345 344 344 343 343 342 342 341 341 340 340 339 339 338 337 337 337 336 336 336 335 335 335 335 334 334 334 333 332 332 332 331 331 331 330 329 329 329 328 329 329 329 329 329 330 329
347 348 348 349 350 349 349 348 347 346 345 345 345 344 345 345 344 344 344 344 344 344 344 344 343 342 342 341 341 341 341 340 341 340 339 339 338 338 338 338 337 337 336 335 335 335 335 334 334 334 333 333 332 332 331 331 331 330 330 329 328 328 328 328 328 328 328 328 328
348 349 349 350 350 349 349 349 347 346 345 344 344 344 344 344 344 344 344 344 344 343 343 342 341 341 341 340 340 340 340 340 340 340 339 338 337 338 337 338 337 336 335 335 334 334 334 334 334 334 334 332 332 331 331 331 330 329 329 328 328 328 328 328 327 326 327 327 327
349 350 349 350 349 348 348 348 347 346 345 343 343 343 343 343 343 344 344 344 342 342 342 342 341 340 341 340 340 340 340 340 340 339 339 338 337 337 337 337 336 336 335 334 334 334 334 334 333 334 334 333 332 332 331 331 330 329 328 327 327 327 327 326 326 325 325 325 325
350 350 350 351 350 349 348 347 347 345 344 343 343 343 343 343 343 343 343 343 342 341 342 341 341 341 340 341 340 340 339 338 338 338 338 337 337 336 336 336 335 335 334 333 331 330 332 333 334 334 334 333 332 332 331 331 331 330 329 328 327 326 326 325 324 324 324 324 324
351 351 351 351 350 349 347 347 345 344 343 343 342 343 343 342 342 342 341 341 341 341 341 340 341 341 341 340 339 339 339 338 337 336 336 336 336 335 335 335 334 333 331 326 321 320 322 327 331 333 334 333 333 333 332 331 331 330 329 329 328 327 327 325 325 324 324 323 324
351 351 351 351 350 349 347 345 344 343 343 343 342 342 342 342 341 341 340 340 341 340 340 340 339 338 338 339 339 338 338 337 337 335 335 334 334 333 333 333 332 331 328 322 319 318 318 320 323 328 333 335 334 333 333 332 332 331 330 330 329 328 328 328 327 326 325 325 325
350 351 350 350 349 348 346 345 344 342 341 342 342 342 342 342 342 341 341 340 341 340 340 340 338 336 336 338 337 337 336 336 335 334 333 333 332 331 331 331 330 328 324 318 317 317 318 319 320 323 328 334 333 332 331 331 331 331 331 331 330 329 329 328 329 328 328 327 327
350 350 350 349 349 348 346 345 343 341 341 341 341 342 342 342 341 341 340 340 340 340 340 339 338 337 337 337 337 336 335 335 334 334 333 331 330 329 329 329 327 323 319 316 316 316 317 318 319 320 323 329 331 331 331 330 330 329 329 329 329 328 328 328 328 328 328 328 328
350 350 350 349 348 348 347 346 342 342 341 341 342 342 342 341 341 340 340 340 340 339 339 339 339 338 338 336 336 336 335 334 334 333 332 331 330 329 328 328 325 320 316 313 314 315 316 317 317 318 320 324 329 330 329 329 329 328 327 328 328 328 328 328 328 327 328 328 328
349 349 349 349 348 347 346 345 343 342 342 342 343 342 342 341 340 340 340 339 339 339 338 339 338 337 336 336 336 335 335 334 334 333 332 330 329 328 327 326 324 320 316 313 314 315 315 316 316 317 318 321 326 328 329 328 327 327 326 327 328 328 328 328 328 328 327 327 327
349 349 348 348 349 348 347 346 344 343 342 342 342 342 342 341 339 339 339 340 339 339 338 339 338 336 336 336 336 335 334 334 333 333 331 330 329 328 327 326 323 319 316 313 314 314 314 314 314 315 317 319 325 327 328 327 327 326 326 327 327 327 327 327 327 327 327 327 327
349 349 348 347 348 347 347 345 345 343 342 341 341 341 341 341 340 339 339 340 339 339 338 338 337 336 336 336 336 335 334 334 333 333 332 331 329 328 327 324 321 319 316 312 313 313 312 312 313 313 315 317 323 326 327 326 326 326 326 326 326 326 326 326 326 326 326 326 326
349 348 348 348 347 347 346 345 343 342 342 342 341 341 341 341 340 339 339 339 340 339 338 337 336 336 335 335 335 335 334 333 333 332 332 331 330 328 326 324 321 318 314 312 312 312 312 311 311 313 314 316 323 325 326 326 326 325 325 325 325 325 325 325 324 324 324 324 324
347 348 347 348 347 347 346 346 345 344 343 341 340 340 340 340 339 338 338 338 339 339 338 338 337 336 336 336 335 334 334 333 333 333 332 331 331 329 327 325 321 316 312 311 311 311 311 311 311 312 314 317 324 326 326 326 325 325 325 325 325 325 325 325 324 324 323 323 323
348 347 347 348 348 348 347 346 345 344 342 340 339 338 338 337 337 337 337 337 338 338 338 337 338 337 336 336 335 334 333 332 332 332 332 331 330 328 326 324 320 315 311 311 311 311 310 310 311 312 315 320 325 327 326 326 325 325 325 325 324 325 325 325 324 324 324 323 322
348 348 347 347 349 349 347 345 345 343 342 340 339 337 336 336 336 337 337 337 337 337 336 336 337 337 336 335 334 334 333 333 332 331 331 330 329 327 325 323 319 315 311 310 310 310 310 310 310 312 316 323 326 327 326 326 325 325 325 324 324 324 324 324 324 324 324 323 322
349 349 348 347 348 348 347 345 343 342 342 341 339 337 336 336 336 336 337 336 336 336 335 334 335 335 335 335 334 333 333 333 332 331 330 329 328 327 325 323 321 317 313 309 309 309 309 309 309 311 316 326 326 326 326 325 325 324 324 323 323 323 323 323 323 323 323 322 322
349 349 349 348 348 348 347 345 343 342 342 341 340 338 336 336 335 335 335 335 335 334 334 333 334 334 335 334 334 333 333 333 331 330 329 329 328 327 325 323 322 319 315 309 309 308 308 307 308 310 315 326 326 326 325 325 324 323 323 322 322 322 322 322 321 320 321 320 319
349 351 350 349 348 348 347 344 343 342 342 341 341 339 337 336 334 334 334 334 334 334 333 333 333 333 334 333 333 332 332 331 330 330 330 329 328 327 326 324 323 319 315 309 308 307 307 306 307 308 312 322 324 325 324 324 323 322 322 321 321 321 321 320 320 319 318 318 316
349 351 351 350 349 348 347 345 343 343 342 341 340 340 339 337 335 334 333 334 333 333 333 332 331 331 331 331 331 331 330 330 330 329 329 328 327 326 325 324 322 319 314 309 308 307 306 305 306 306 311 321 323 323 323 323 322 321 320 320 320 320 320 320 319 319 318 317 315
350 350 350 350 349 348 346 345 343 343 342 341 340 340 339 338 336 334 333 332 332 332 332 331 329 328 328 328 328 328 328 328 327 327 327 326 325 325 324 324 322 319 316 311 308 306 305 305 305 306 309 319 322 322 321 321 320 320 320 320 320 319 319 319 319 319 318 317 316
Wind_Speed
4 3 3 3 3 3 3 3 2 2 2 3 3 3 4 4 4 4 4 4 4 4 4 4 5 5 6 8 7 6 5 3 4 3 3 2 2 1 2 3 3 3 4 4 4 3 1 1 0 1 2 3 3 3 2 2 3 4 4 5 5 6 7 7 6 7 8 7 5
5 5 4 3 3 3 2 3 2 2 2 3 2 2 3 4 4 4 4 4 4 4 5 4 4 5 7 8 7 6 5 4 5 5 5 4 2 1 1 1 3 3 3 3 2 1 1 2 2 0 1 2 2 2 2 2 3 4 5 6 6 6 6 5 4 5 6 6 5
5 5 5 4 3 3 3 2 3 3 3 3 2 2 3 3 4 4 4 4 4 5 5 5 5 6 7 8 7 6 6 6 6 7 7 6 4 3 2 2 2 3 4 4 4 3 1 1 3 2 1 1 2 3 3 3 4 4 5 6 4 3 3 2 3 2 2 3 4
6 5 5 5 5 4 3 3 3 4 3 2 2 2 2 3 3 4 4 5 5 5 5 5 5 6 7 7 7 7 7 7 7 7 6 5 5 5 4 2 2 2 2 1 0 0 0 1 2 3 2 3 3 3 2 2 2 2 2 2 1 1 1 1 2 2 2 2 3
6 5 5 5 5 4 4 3 4 3 3 2 1 2 2 3 3 3 4 4 5 5 5 5 5 5 6 7 8 8 8 9 8 7 6 5 5 5 5 4 3 2 2 3 3 3 2 1 2 2 2 1 1 0 1 1 1 0 0 0 1 1 2 2 2 2 2 2 3
6 6 6 5 5 5 4 3 3 3 2 2 2 3 3 3 3 4 4 4 5 5 5 5 5 6 7 8 8 8 8 8 9 9 9 8 7 6 7 7 8 8 6 5 5 5 4 3 3 2 2 1 2 2 2 2 0 1 1 1 1 1 1 1 1 1 2 2 3
7 7 6 6 5 4 4 4 3 3 3 3 4 5 5 4 4 5 6 5 5 5 5 5 6 6 7 7 7 7 7 7 8 9 10 9 9 9 9 9 9 8 8 8 7 6 4 3 2 2 2 2 2 2 1 0 1 2 2 3 2 1 1 1 1 1 2 3 3
7 7 7 6 5 5 4 4 3 3 3 3 4 5 5 5 5 6 5 5 5 5 4 5 6 8 8 7 7 7 7 8 8 8 9 9 10 10 10 9 9 9 8 8 8 6 5 2 2 2 2 3 2 2 2 2 2 2 1 1 1 1 1 1 1 2 2 4 4
7 7 6 6 5 5 4 4 4 3 3 3 4 5 5 4 5 5 5 5 4 4 4 5 7 8 8 7 7 8 8 8 8 8 9 9 10 10 10 9 10 9 9 8 8 8 7 5 3 2 2 2 3 3 3 3 2 1 0 0 0 0 0 0 1 2 3 3 4
7 7 6 5 5 5 4 4 4 3 3 4 5 5 4 3 3 4 4 4 4 4 5 6 7 7 7 7 8 8 8 8 8 8 8 9 9 10 9 9 9 9 9 8 8 8 7 6 5 5 4 3 2 3 4 4 3 2 2 1 1 1 2 2 3 3 4 3 3
7 7 7 6 5 4 4 4 4 3 3 4 4 4 3 3 3 4 4 3 4 6 7 8 7 7 7 7 7 7 7 7 7 7 8 8 9 9 9 9 9 9 9 8 8 7 6 6 6 7 7 6 5 4 2 3 3 3 3 2 2 3 4 4 5 4 4 3 3
7 7 6 6 6 5 4 4 3 2 2 3 4 4 4 4 4 4 4 4 5 7 8 7 7 7 6 6 6 6 6 6 6 7 7 8 9 9 9 9 9 10 9 9 8 7 6 6 7 7 8 8 7 6 6 5 3 3 2 2 1 1 1 2 3 3 3 3 3
7 6 6 6 5 5 5 4 3 2 2 4 4 4 4 4 4 4 4 5 6 6 6 6 6 6 6 6 6 5 5 6 7 7 7 8 8 9 9 9 10 10 9 9 8 8 7 7 8 8 9 9 7 7 8 8 8 7 7 7 6 5 4 4 3 2 1 3 3
6 6 6 6 5 5 5 4 2 2 2 4 4 4 3 3 4 4 4 5 5 5 5 5 5 5 5 5 5 6 6 7 8 9 9 8 9 9 9 9 10 10 9 9 9 9 9 9 9 9 9 9 9 9 9 9 9 8 8 8 7 7 7 7 6 5 4 3 2
6 6 6 5 5 5 5 4 3 2 3 4 4 4 3 3 4 4 4 4 4 5 5 5 5 5 5 5 6 7 7 8 9 9 9 9 10 10 10 10 10 10 10 9 10 10 10 10 10 10 10 10 9 9 9 9 9 8 8 7 7 7 7 7 7 6 6 5 3
7 6 5 5 4 4 4 4 3 3 3 4 4 4 4 4 4 4 4 4 4 4 5 5 5 5 4 5 6 6 7 8 9 9 9 10 10 10 10 10 10 10 10 10 10 10 10 10 10 10 10 10 10 10 10 10 9 9 9 9 8 8 8 7 7 7 7 7 6
7 6 5 4 4 4 4 4 3 3 4 4 4 4 4 5 4 4 4 4 4 5 5 5 5 5 4 4 5 6 7 8 8 8 9 9 10 10 10 10 10 10 10 10 10 10 10 10 9 10 10 10 10 10 11 11 10 10 11 11 10 10 10 9 9 9 9 9 9
7 7 6 5 4 4 4 4 4 4 5 4 4 4 4 5 4 4 4 5 5 6 6 6 5 5 5 5 5 6 6 7 8 8 9 9 9 10 10 10 10 10 10 10 10 10 10 10 10 9 9 10 10 10 11 11 11 11 11 12 12 11 11 11 11 10 10 10 11
8 7 7 6 5 5 5 5 5 5 5 4 4 4 5 5 4 4 4 5 5 5 5 6 6 6 6 6 6 6 6 7 8 8 9 9 9 10 10 10 10 10 10 10 10 10 10 10 10 10 10 10 10 10 10 11 11 11 11 11 12 12 12 12 12 11 11 11 11
9 8 7 6 6 6 5 5 5 5 4 4 4 5 5 5 4 4 4 5 4 5 5 6 6 6 6 6 7 7 6 6 7 8 8 9 9 10 10 9 10 10 10 10 10 10 10 10 10 10 10 11 11 11 11 11 11 11 11 10 11 12 12 12 12 12 12 12 12
9 8 7 7 6 6 6 6 5 5 5 5 5 6 5 4 4 4 5 5 4 4 5 6 6 6 6 7 7 7 7 6 7 7 8 8 9 9 9 9 9 9 9 9 10 10 10 10 10 10 10 11 11 11 11 10 11 11 11 10 11 11 12 12 12 12 12 12 12
8 8 7 7 7 6 6 6 5 5 5 5 6 6 6 5 4 5 4 4 4 4 5 6 6 7 7 7 7 7 7 6 6 7 7 7 8 8 8 8 9 9 9 9 9 9 9 9 10 10 10 10 11 11 10 10 11 11 11 11 12 12 12 12 11 11 11 11 12
8 8 7 7 7 7 6 6 5 5 5 5 6 6 6 6 5 5 4 4 4 5 6 6 6 7 7 7 7 7 7 7 7 7 7 8 8 9 9 9 9 9 9 8 8 7 7 8 8 9 9 10 10 10 10 10 10 10 10 11 11 11 11 11 11 11 11 11 11
8 8 7 6 7 7 7 6 5 5 5 5 6 6 6 6 5 4 4 4 5 5 6 5 6 7 7 7 7 7 7 7 8 8 8 9 9 9 9 9 9 9 9 8 8 8 6 4 5 6 7 8 9 9 9 9 9 9 10 10 10 10 10 10 10 10 10 10 10
8 8 7 7 7 7 7 6 6 5 5 5 5 6 6 6 5 4 4 5 5 6 6 6 6 6 6 6 7 7 7 7 8 8 9 9 9 9 9 9 8 8 8 8 10 11 10 8 5 4 6 7 7 8 8 9 9 9 9 9 9 9 9 9 10 10 10 10 10
8 8 8 7 7 7 7 7 6 6 5 5 5 6 6 6 5 5 5 5 6 6 6 6 5 5 5 6 6 6 6 7 7 8 8 9 10 10 10 9 8 8 8 8 10 11 12 12 11 8 5 6 6 6 7 7 8 8 8 8 8 8 8 8 9 9 9 9 9
9 8 8 8 8 8 8 7 7 7 6 6 6 6 6 6 6 5 5 5 5 5 5 5 5 5 5 5 6 6 6 6 7 8 8 9 10 11 11 9 8 8 8 9 10 11 12 12 13 11 8 6 6 6 6 6 7 7 8 8 8 8 8 8 8 8 8 8 9
9 8 8 8 8 8 8 7 7 7 7 7 7 6 6 6 6 6 6 5 5 5 5 4 4 4 4 4 5 6 7 7 7 8 8 10 11 11 11 9 9 8 8 9 10 10 11 11 11 11 9 6 6 6 6 6 6 7 7 7 7 8 8 8 8 8 8 8 8
9 9 8 8 8 8 8 8 7 7 7 7 7 7 7 6 6 6 6 6 5 5 4 4 3 3 4 5 5 6 6 7 7 7 8 10 11 11 11 10 9 8 8 8 9 9 9 10 10 10 9 7 4 5 5 5 6 6 6 6 7 7 7 7 7 7 8 8 8
9 9 9 9 8 8 8 8 7 7 6 6 7 7 7 7 7 7 7 6 5 5 4 4 3 4 5 6 6 6 6 6 6 7 8 10 10 11 10 10 9 8 7 8 8 8 8 9 9 9 9 7 5 5 5 6 6 7 7 7 7 8 9 9 9 9 8 8 8
9 9 9 9 8 8 8 8 8 7 7 6 7 7 7 6 7 6 6 5 5 4 4 4 4 5 6 6 6 6 6 6 6 7 8 9 10 11 11 11 10 8 7 7 7 7 8 8 8 8 8 7 5 5 6 7 7 7 7 8 8 9 9 9 9 10 10 9 9
9 9 9 9 9 8 8 8 8 8 8 8 8 7 7 6 6 6 5 5 4 4 4 5 5 5 6 6 6 6 6 6 6 7 8 9 10 10 11 10 10 8 7 7 6 7 7 7 8 8 8 6 4 6 8 8 8 8 9 9 10 10 10 9 9 10 11 10 10
8 8 8 8 8 8 8 9 8 8 8 8 8 7 7 6 5 5 5 5 5 5 5 5 5 5 6 6 6 6 6 6 7 7 8 9 10 10 10 9 9 7 6 6 6 6 7 7 7 7 7 5 4 6 8 8 8 8 8 9 10 11 11 11 10 10 11 11 10
7 7 7 7 7 8 8 9 9 8 8 8 7 7 6 5 5 5 4 4 5 5 5 4 4 5 5 5 6 6 6 6 6 7 8 9 9 10 9 8 7 5 5 6 6 6 7 7 7 7 6 3 4 7 8 9 8 8 9 9 10 10 10 11 11 11 11 11 10
6 7 6 5 6 8 9 10 9 9 9 8 7 7 6 5 4 4 4 5 5 5 4 4 4 4 4 5 5 6 6 6 7 7 8 8 9 9 10 9 7 6 5 6 6 7 7 8 8 7 5 2 5 7 8 9 9 9 10 10 10 10 10 10 10 10 10 10 10
5 5 5 5 7 8 10 10 10 10 10 10 9 8 7 6 5 4 5 5 5 5 5 5 4 4 4 4 5 5 6 6 7 7 7 8 9 9 10 10 8 6 5 6 7 7 8 8 9 8 5 1 4 6 7 8 8 9 10 10 10 10 11 11 11 11 11 10 10
4 4 5 7 8 9 9 9 9 10 10 10 10 9 8 7 6 5 5 5 5 5 5 5 5 5 5 5 5 5 5 6 6 7 7 7 8 9 10 9 9 7 5 6 7 7 7 8 9 8 5 2 4 5 6 7 7 8 9 10 10 10 10 10 11 12 12 13 12
3 5 6 8 9 9 9 9 10 10 10 10 10 9 8 7 7 6 6 5 5 5 5 5 5 5 5 5 5 5 5 5 6 6 7 7 8 8 9 9 8 7 5 6 6 7 7 7 8 8 6 1 3 5 5 6 7 7 8 8 8 9 9 8 9 10 12 15 15
4 5 7 8 9 9 8 8 10 10 10 10 9 9 8 7 6 6 6 5 5 5 5 5 5 5 4 4 4 5 5 5 5 5 6 7 7 8 8 9 8 7 5 6 6 7 7 7 8 8 7 1 2 3 4 6 7 7 8 8 8 8 8 8 8 9 11 14 16
5 6 7 9 9 8 7 8 9 10 10 8 7 7 8 8 7 6 6 5 5 4 4 4 4 4 3 3 3 4 4 4 4 5 6 7 7 7 7 8 8 7 6 5 6 7 7 7 8 8 8 2 1 2 3 5 6 7 7 7 7 7 7 7 7 8 9 11 13
5 7 8 9 8 6 6 8 9 9 8 6 5 6 6 8 8 7 6 5 5 5 4 4 5 5 4 2 2 2 3 4 4 5 6 7 7 7 6 7 7 7 6 5 6 7 8 8 8 9 8 4 1 1 2 3 5 6 7 7 7 6 6 7 6 7 8 9 9
Wind_Direction
118 109 96 83 79 77 75 75 64 44 25 36 16 350 338 343 351 355 356 354 351 353 359 5 354 340 332 330 333 342 353 357 321 330 2 30 23 348 314 297 271 249 238 239 243 241 223 137 360 318 306 301 287 270 243 174 161 175 199 215 228 236 234 220 201 190 188 191 203
118 113 108 104 100 95 92 92 88 68 45 44 26 354 341 343 355 357 355 353 352 356 1 6 354 340 333 335 342 349 353 345 341 358 14 26 48 71 60 354 335 331 324 311 305 304 123 125 126 141 290 292 273 259 238 182 166 181 197 208 214 225 233 235 221 206 197 190 195
125 122 118 114 106 97 88 82 78 66 55 45 30 3 354 358 360 356 350 343 351 1 5 359 352 346 345 347 356 0 360 353 4 14 18 8 15 39 68 72 36 14 4 351 345 345 358 127 138 150 188 248 237 227 210 188 181 190 201 206 209 220 239 260 263 251 229 202 201
127 120 111 102 94 88 82 72 69 65 59 43 27 17 13 7 360 353 346 338 354 8 10 354 354 356 359 0 11 13 8 2 12 21 25 9 8 19 34 57 107 126 137 177 284 347 313 223 149 148 166 208 224 220 204 182 177 192 208 207 201 206 223 243 253 251 241 222 210
122 113 104 99 95 90 83 71 65 63 61 45 28 31 28 10 357 353 351 344 2 10 9 354 4 12 16 14 22 22 17 10 9 13 20 23 27 28 25 11 28 53 108 136 125 117 109 111 99 110 130 172 220 327 29 37 68 115 158 155 172 182 192 199 210 216 216 210 204
118 111 106 102 100 96 90 82 74 68 59 36 26 34 34 14 358 356 359 3 9 7 2 358 19 30 30 24 28 30 28 21 13 10 10 14 26 34 34 26 24 21 18 27 57 65 61 48 55 64 74 81 58 44 34 18 114 163 158 164 167 185 197 196 213 229 234 230 217
118 115 111 108 104 101 100 101 93 78 60 36 33 33 30 15 7 5 7 10 9 5 360 1 26 39 41 31 30 33 37 37 28 22 18 16 21 27 34 37 33 26 18 13 26 43 61 65 76 86 89 84 77 71 63 321 225 194 178 170 167 178 202 223 228 243 251 253 241
118 116 114 113 112 108 104 104 97 86 71 51 47 41 32 17 14 12 12 16 11 7 7 13 29 39 42 36 30 32 38 44 41 36 31 31 30 31 32 34 34 31 26 19 19 24 33 46 81 113 118 113 117 127 150 199 220 218 202 176 167 178 190 199 217 231 240 246 244
123 119 117 117 114 110 103 94 86 79 72 65 62 55 42 24 20 17 16 22 14 13 19 31 35 37 39 37 32 31 33 38 40 40 39 39 39 38 37 36 33 31 29 26 25 25 23 16 12 27 72 119 135 142 150 165 182 197 238 298 299 284 272 272 261 255 249 243 245
128 126 123 117 112 110 106 94 78 69 64 64 65 64 58 36 35 33 31 24 14 21 32 41 38 36 35 37 34 32 32 34 37 39 40 41 42 42 41 39 35 32 29 27 28 29 30 28 19 15 16 34 88 123 138 149 155 160 167 183 183 187 195 212 229 239 241 237 239
131 129 126 121 118 117 112 101 85 71 63 70 69 67 62 55 49 48 47 35 29 36 40 41 35 32 32 37 37 35 34 35 38 41 42 43 44 43 43 41 39 36 33 29 28 29 32 36 34 28 25 23 27 41 78 127 144 152 161 177 191 195 196 198 203 210 218 222 226
130 127 123 120 121 118 106 87 79 66 57 70 69 60 50 49 47 49 49 44 44 46 47 44 37 32 30 36 39 39 39 44 47 47 46 46 45 45 44 42 41 39 37 34 32 31 33 37 41 42 42 40 33 26 25 34 49 64 64 39 8 260 230 221 209 204 202 205 216
130 126 123 121 118 109 96 78 72 60 53 62 63 56 45 43 45 48 51 51 51 53 56 56 47 39 35 36 40 40 42 49 53 52 50 46 46 45 44 43 42 41 40 38 36 35 36 36 41 46 50 51 49 45 41 41 42 43 42 38 33 25 12 360 348 323 256 215 208
135 132 129 128 124 116 109 104 100 89 74 69 66 61 53 48 46 49 54 58 62 65 66 67 61 52 44 41 43 43 43 46 50 52 51 48 47 46 45 45 44 43 42 41 40 39 39 39 40 44 48 52 53 52 52 51 51 50 47 45 43 38 30 19 9 358 341 308 267
140 137 135 135 132 126 120 115 107 93 81 75 75 73 67 58 51 49 52 61 66 69 70 71 72 67 59 53 54 53 52 51 50 51 51 50 49 48 47 46 46 46 46 44 43 42 41 41 41 42 45 49 51 52 53 55 56 54 52 49 46 42 36 30 25 20 13 2 358
144 142 140 140 133 123 112 104 96 84 75 71 75 77 76 68 59 52 50 57 64 68 70 74 80 80 77 69 67 66 65 63 58 56 54 53 51 50 49 49 48 48 49 49 48 47 45 43 43 43 44 47 49 50 51 52 53 54 53 51 49 45 41 37 38 38 39 39 43
148 145 144 144 134 120 107 98 92 81 73 67 64 69 75 75 68 60 55 57 64 67 69 72 79 84 85 81 78 75 74 73 70 66 63 60 58 56 55 53 52 52 52 54 54 54 52 51 49 49 49 50 50 51 51 51 51 51 50 50 49 47 44 41 42 44 47 51 53
151 149 149 149 139 123 110 102 93 85 80 78 70 71 74 77 74 69 65 64 70 72 73 72 73 75 77 76 76 75 75 75 76 76 74 71 68 65 62 60 58 57 57 58 59 59 59 59 58 58 57 57 57 57 57 56 55 54 52 51 50 49 47 45 43 44 46 49 53
155 154 154 153 142 129 118 109 101 95 93 93 89 85 82 82 82 78 73 70 75 80 83 81 78 74 72 71 71 71 72 72 74 76 77 77 74 71 68 66 64 63 61 60 61 62 63 63 63 63 64 64 65 65 65 65 63 60 58 55 53 52 50 48 47 46 46 47 51
158 157 156 153 144 135 125 117 112 109 109 109 105 100 96 96 98 92 84 75 76 80 85 86 86 83 79 76 73 71 70 70 71 73 75 77 76 75 73 72 70 67 66 64 64 64 64 65 65 66 66 67 67 68 68 68 67 65 62 58 55 53 52 50 48 47 47 48 50
159 156 154 151 143 136 129 122 121 121 121 120 115 112 111 114 105 93 84 78 76 78 81 83 86 86 84 80 76 73 71 69 69 71 74 77 78 79 79 79 76 73 70 68 68 68 68 68 69 69 69 68 67 67 66 66 66 65 63 60 58 55 53 51 49 47 47 48 50
155 153 151 149 142 136 130 125 127 129 130 128 125 124 123 119 103 92 87 84 80 77 78 79 79 79 78 76 73 72 71 69 68 69 72 75 78 79 79 79 78 76 73 69 69 71 73 74 73 74 74 73 70 68 66 65 65 64 62 61 59 56 54 51 49 47 46 46 48
152 151 151 148 143 138 132 128 134 139 140 137 133 129 122 113 106 103 101 99 89 82 78 76 76 73 72 71 71 72 72 72 71 69 68 69 71 71 70 69 69 69 67 63 60 62 69 78 80 79 79 79 76 74 71 68 67 65 64 62 60 57 54 51 49 48 47 47 47
151 151 150 147 143 138 134 136 143 148 148 140 132 125 119 114 113 112 110 104 95 89 85 81 79 77 76 75 74 74 75 75 75 73 71 69 69 69 67 64 62 60 57 50 34 27 30 56 81 89 89 86 84 82 79 77 74 72 70 67 65 62 59 55 52 50 50 50 50
153 152 151 149 145 143 142 147 150 151 147 136 130 127 125 122 121 118 112 105 98 95 93 92 89 86 85 83 81 79 78 78 78 79 79 78 76 74 70 67 62 59 54 44 27 18 12 8 18 60 89 90 90 90 89 87 85 83 80 77 75 72 68 65 60 57 56 55 56
157 156 154 153 151 152 153 153 154 152 148 141 141 137 132 127 123 119 114 109 106 104 102 102 102 99 95 91 90 88 86 83 82 81 82 82 79 75 70 65 61 58 52 40 27 23 20 13 8 16 46 79 82 85 87 87 86 86 86 85 84 82 80 76 72 68 65 63 63
162 160 159 159 160 160 159 156 157 157 156 153 152 145 135 129 127 124 120 113 112 111 111 110 108 104 100 97 95 93 91 88 86 83 81 80 77 74 70 65 60 55 47 36 28 26 24 20 13 13 24 62 68 70 72 76 76 77 78 77 77 77 78 80 80 79 77 74 70
168 166 164 165 167 166 163 159 163 164 162 158 152 144 136 134 132 129 126 123 127 128 128 123 118 113 108 103 97 94 93 92 90 87 84 81 78 76 73 70 66 58 46 33 32 31 28 23 15 12 17 43 63 69 70 70 70 69 68 66 65 65 66 70 74 78 79 79 76
173 170 169 172 172 171 168 165 167 167 163 155 148 143 142 143 140 137 136 139 145 145 141 133 133 127 117 109 105 103 100 97 95 92 90 87 84 81 79 78 76 65 48 33 35 35 31 25 16 9 5 9 46 69 73 72 71 69 67 64 61 60 60 60 63 67 72 75 77
179 176 175 179 179 176 172 168 167 164 159 152 149 149 151 153 149 147 147 151 152 147 139 137 142 134 123 118 117 114 109 105 103 102 99 97 92 89 86 84 83 73 53 36 37 36 32 25 16 6 0 4 42 66 71 70 71 70 68 66 64 62 61 60 60 61 63 67 72
184 183 182 183 185 180 172 164 163 161 160 158 157 158 159 161 156 152 149 149 144 138 137 144 143 135 128 126 124 120 116 114 112 108 103 100 96 93 91 90 89 80 60 39 38 37 33 25 17 6 358 359 42 69 74 73 72 70 69 67 65 64 63 62 60 59 60 61 64
189 191 190 188 187 180 170 161 162 164 166 166 164 164 164 163 155 146 140 137 138 142 147 151 145 139 134 131 128 125 121 118 113 108 103 100 98 96 94 91 90 83 64 40 36 34 31 25 16 5 356 354 48 76 80 79 77 75 73 70 68 66 64 63 61 60 59 59 59
194 200 201 197 187 175 164 161 165 169 171 170 167 166 164 159 148 139 135 138 147 152 155 154 149 144 140 136 133 128 123 118 114 111 108 105 103 99 95 90 88 79 60 36 31 29 27 22 15 3 353 351 52 78 81 80 79 78 75 73 70 68 67 66 65 63 62 61 60
199 208 212 207 185 169 163 166 170 172 173 170 165 162 158 152 146 143 144 148 154 155 154 151 149 145 142 139 136 132 128 123 121 119 116 112 108 103 98 93 89 74 49 26 25 22 19 14 7 356 350 2 68 82 84 83 82 80 77 75 72 69 67 66 66 67 67 67 67
202 210 215 215 190 176 171 173 176 176 173 167 160 155 152 150 154 155 155 153 153 151 147 143 142 143 143 142 140 137 136 133 131 128 124 119 113 108 103 99 97 79 47 21 20 17 12 6 356 347 345 42 84 89 88 87 85 82 79 76 73 69 66 64 63 64 65 68 72
207 208 211 218 207 193 183 177 179 179 176 167 159 155 153 158 168 169 162 153 151 148 143 140 145 151 153 150 148 146 144 142 139 136 131 126 119 113 109 107 105 91 59 25 19 13 8 2 353 343 337 97 98 97 95 92 88 84 81 77 73 70 66 62 58 55 53 54 60
212 205 208 219 218 206 192 179 182 184 181 171 163 159 159 166 169 167 162 157 155 152 149 148 155 161 163 159 154 151 151 149 147 143 139 133 124 119 115 113 112 104 77 34 21 14 9 2 352 345 341 118 110 107 104 100 95 90 86 81 77 73 69 66 60 55 49 44 44
233 218 216 223 225 215 199 180 182 185 186 177 167 162 162 166 166 164 162 165 162 159 156 157 163 165 164 159 154 154 156 159 153 148 142 136 128 123 120 118 116 110 88 43 26 19 13 5 354 344 338 82 111 113 112 107 104 99 94 89 84 79 75 72 68 63 56 49 43
257 237 229 230 230 221 204 181 181 185 188 183 173 166 162 162 161 161 162 166 163 160 159 161 161 158 154 153 153 156 161 164 155 147 139 132 125 121 120 119 116 110 93 52 33 25 18 10 358 344 334 319 107 115 117 114 111 108 104 99 94 88 82 79 77 74 68 60 50
254 242 236 234 232 222 201 180 183 185 186 182 178 171 164 159 156 154 152 153 150 149 147 143 134 126 125 140 152 159 161 160 147 133 122 115 112 112 114 117 115 111 98 65 40 30 23 16 4 346 332 298 107 117 121 119 117 115 111 107 102 96 91 86 84 81 78 72 62
243 236 233 233 230 213 183 173 178 178 176 171 181 179 169 156 150 144 140 140 140 136 131 121 111 103 97 93 119 147 151 146 124 109 102 102 105 109 113 117 116 114 105 80 47 33 26 21 11 354 340 327 13 114 120 119 118 116 113 110 107 103 99 94 90 86 83 80 74